Weather History for KMGW - September, 2011

Change the Weather History Date:

Sunday, September 4, 2011

  Actual Average Record
Temperature  
Mean Temperature 76 °F 69 °F  
Max Temperature 85 °F 80 °F 95 °F (1953)
Min Temperature 66 °F 59 °F 42 °F (1997)
Degree Days  
Heating Degree Days 0 1  
Month to date heating degree days 0 4  
Since 1 July heating degree days 0 15  
Cooling Degree Days 11 5  
Month to date cooling degree days 48 21  
Year to date cooling degree days 949 730  
Growing Degree Days 25 (Base 50)    
Moisture  
Dew Point 67 °F    
Average Humidity 75    
Maximum Humidity 90    
Minimum Humidity 59    
Precipitation  
Precipitation 1.48 in 0.11 in 1.48 in (2011)
Month to date precipitation 1.91 0.44  
Year to date precipitation 39.34 29.91  
Sea Level Pressure  
Sea Level Pressure 29.89 in    
Wind  
Wind Speed 2 mph (NNE)    
Max Wind Speed 24 mph    
Max Gust Speed 36 mph    
Visibility 6 miles    
Events Fog , Rain , Thunderstorm    
T = Trace of Precipitation, MM = Missing Value Source: NWS Daily Summary

Daily Weather History Graph

Daily Weather History Graph

Search for Another Location

Airport or City:

Trip Planner

Search our weather history database for the weather conditions in past years. The results will help you decide how hot, cold, wet, or windy it might be!

Date:

Astronomy

Sep. 04, 2011 Rise Set
Actual Time 6:50 AM EDT 7:46 PM EDT
Civil Twilight 6:22 AM EDT 8:13 PM EDT
Nautical Twilight 5:50 AM EDT 8:46 PM EDT
Astronomical Twilight 5:16 AM EDT 9:20 PM EDT
Moon 2:31 PM EDT (9/4) No Moon Set
Length of Visible Light 13h 51m
Length of Day
12h 56m
Waxing Crescent, 49% of the Moon is Illuminated
Sep 4
Waxing Crescent
Sep 4
First Quarter
Sep 12
Full
Sep 20
Last Quarter
Sep 27
New

Hourly Weather History & Observations

Time (EDT) Temp. Heat Index Dew Point Humidity Pressure Visibility Wind Dir Wind Speed Gust Speed Precip Events Conditions
12:53 AM 75.9 °F - 66.9 °F 74% 29.91 in 9.0 mi Calm Calm - N/A   Clear
1:53 AM 73.9 °F - 66.0 °F 76% 29.90 in 9.0 mi Calm Calm - N/A   Clear
2:53 AM 72.0 °F - 66.0 °F 81% 29.89 in 9.0 mi Calm Calm - N/A   Clear
3:53 AM 72.0 °F - 66.9 °F 84% 29.88 in 9.0 mi Calm Calm - N/A   Clear
4:53 AM 71.1 °F - 66.9 °F 87% 29.89 in 7.0 mi Calm Calm - N/A   Clear
5:53 AM 70.0 °F - 66.9 °F 90% 29.93 in 6.0 mi East 3.5 mph - N/A   Clear
6:53 AM 71.1 °F - 66.9 °F 87% 29.94 in 6.0 mi Calm Calm - N/A   Clear
7:53 AM 71.1 °F - 66.9 °F 87% 29.94 in 5.0 mi Calm Calm - N/A   Clear
8:53 AM 73.0 °F - 68.0 °F 84% 29.92 in 7.0 mi Calm Calm - N/A   Clear
9:53 AM 78.1 °F - 68.0 °F 71% 29.90 in 10.0 mi SSE 6.9 mph - N/A   Mostly Cloudy
10:53 AM 81.0 °F 83.8 °F 68.0 °F 65% 29.90 in 10.0 mi Variable 3.5 mph - N/A   Mostly Cloudy
11:53 AM 82.0 °F 84.9 °F 68.0 °F 62% 29.88 in 10.0 mi Calm Calm - N/A   Mostly Cloudy
12:53 PM 84.0 °F 87.0 °F 68.0 °F 58% 29.87 in 10.0 mi Calm Calm - N/A   Clear
1:53 PM 84.0 °F 88.4 °F 70.0 °F 63% 29.86 in 10.0 mi Calm Calm - N/A   Mostly Cloudy
2:53 PM 84.0 °F 89.0 °F 71.1 °F 65% 29.84 in 10.0 mi NNW 4.6 mph - N/A   Mostly Cloudy
3:53 PM 82.9 °F 88.8 °F 73.0 °F 72% 29.83 in 8.0 mi North 10.4 mph - N/A   Scattered Clouds
4:53 PM 78.1 °F - 70.0 °F 76% 29.82 in 8.0 mi North 9.2 mph - N/A   Mostly Cloudy
5:08 PM 77.0 °F - 69.8 °F 78% 29.84 in 9.0 mi North 10.4 mph - N/A Thunderstorm Mostly Cloudy
5:23 PM 78.8 °F - 69.8 °F 74% 29.84 in 10.0 mi North 9.2 mph - N/A   Mostly Cloudy
5:33 PM 78.8 °F - 69.8 °F 74% 29.85 in 10.0 mi North 9.2 mph - N/A Thunderstorm Partly Cloudy
5:53 PM 75.9 °F - 66.9 °F 74% 29.84 in 10.0 mi ENE 6.9 mph 17.3 mph N/A Thunderstorm Thunderstorm
6:01 PM 73.4 °F - 66.2 °F 78% 29.91 in 1.0 mi SE 24.2 mph 35.7 mph 0.11 in Rain , Thunderstorm Thunderstorms and Rain
6:05 PM 69.8 °F - 64.4 °F 83% 29.90 in 0.2 mi NNE 11.5 mph 35.7 mph 0.28 in Fog , Rain , Thunderstorm Heavy Thunderstorms and Rain
6:11 PM 66.2 °F - 64.4 °F 94% 29.86 in 0.2 mi North 18.4 mph 26.5 mph 0.51 in Fog , Rain , Thunderstorm Heavy Thunderstorms and Rain
6:15 PM 66.2 °F - 64.4 °F 94% 29.86 in 0.5 mi North 17.3 mph 26.5 mph 0.53 in Rain , Thunderstorm Heavy Thunderstorms and Rain
6:22 PM 66.2 °F - 64.4 °F 94% 29.87 in 4.0 mi NNE 11.5 mph 24.2 mph 0.53 in Rain , Thunderstorm Light Thunderstorms and Rain
6:30 PM 66.2 °F - 64.4 °F 94% 29.88 in 10.0 mi North 10.4 mph 18.4 mph 0.53 in Thunderstorm Thunderstorm
6:51 PM 68.0 °F - 64.4 °F 88% 29.90 in 1.8 mi Calm Calm - 0.57 in Rain , Thunderstorm Light Rain
6:53 PM 68.0 °F - 64.9 °F 90% 29.87 in 1.2 mi South 3.5 mph - 0.60 in Rain , Thunderstorm Heavy Rain
6:56 PM 66.2 °F - 64.4 °F 94% 29.88 in 0.5 mi Calm Calm - 0.08 in Fog , Rain , Thunderstorm Heavy Rain
7:13 PM 66.2 °F - 66.2 °F 100% 29.88 in 0.8 mi NNW 6.9 mph - 0.34 in Rain , Thunderstorm Heavy Thunderstorms and Rain
7:24 PM 66.2 °F - 66.2 °F 100% 29.88 in 1.8 mi NNE 9.2 mph - 0.39 in Rain , Thunderstorm Thunderstorms and Rain
7:27 PM 66.2 °F - 66.2 °F 100% 29.88 in 3.0 mi North 8.1 mph - 0.39 in Rain Light Rain
7:34 PM 66.2 °F - 66.2 °F 100% 29.89 in 10.0 mi NNE 6.9 mph - 0.39 in Rain , Thunderstorm Light Rain
7:53 PM 66.9 °F - 66.9 °F 100% 29.88 in 10.0 mi SSE 3.5 mph - 0.39 in Thunderstorm Overcast
8:53 PM 68.0 °F - 66.9 °F 96% 29.87 in 6.0 mi Calm Calm - 0.06 in Rain Light Rain
9:10 PM 68.0 °F - 66.2 °F 94% 29.92 in 4.0 mi SW 6.9 mph - 0.00 in Rain , Thunderstorm Light Rain
9:19 PM 68.0 °F - 66.2 °F 94% 29.95 in 3.0 mi SW 8.1 mph 19.6 mph 0.04 in Rain , Thunderstorm Thunderstorms and Rain
9:22 PM 68.0 °F - 66.2 °F 94% 29.95 in 1.8 mi WSW 6.9 mph 19.6 mph 0.09 in Rain , Thunderstorm Heavy Thunderstorms and Rain
9:28 PM 66.2 °F - 66.2 °F 100% 29.95 in 0.8 mi SW 6.9 mph - 0.22 in Rain , Thunderstorm Heavy Thunderstorms and Rain
9:30 PM 66.2 °F - 66.2 °F 100% 29.95 in 0.8 mi SW 10.4 mph 17.3 mph 0.24 in Rain , Thunderstorm Heavy Rain
9:37 PM 66.2 °F - 64.4 °F 94% 29.94 in 1.8 mi Variable 6.9 mph 17.3 mph 0.26 in Rain , Thunderstorm Rain
9:39 PM 66.2 °F - 64.4 °F 94% 29.94 in 3.0 mi WSW 6.9 mph - 0.26 in Rain , Thunderstorm Rain
9:53 PM 66.9 °F - 64.0 °F 90% 29.92 in 5.0 mi SSW 4.6 mph - 0.28 in Rain , Thunderstorm Rain
10:00 PM 66.2 °F - 64.4 °F 94% 29.95 in 4.0 mi South 3.5 mph - 0.02 in Rain , Thunderstorm Rain
10:21 PM 66.2 °F - 64.4 °F 94% 29.94 in 5.0 mi South 4.6 mph - 0.08 in Rain Rain
10:44 PM 66.2 °F - 64.4 °F 94% 29.92 in 8.0 mi East 4.6 mph - 0.14 in Rain Light Rain
10:53 PM 66.0 °F - 64.9 °F 96% 29.88 in 10.0 mi ESE 4.6 mph - 0.14 in Rain Light Rain
11:53 PM 66.0 °F - 64.9 °F 96% 29.85 in 10.0 mi Calm Calm - 0.01 in Rain Light Rain